Location: Lecco
(45.8566°N, 9.3977°E)
Time: 01:44:24
(UTC+02:00)

Transit 4A - Visible Passes

Search period start: 08 May 2021 00:00
Search period end: 18 May 2021 00:00
Orbit: 870 x 974 km, 66.8° (Epoch: 07 May)

Date Brightness Start Highest point End Pass type
(mag) Time Alt. Az. Time Alt. Az. Time Alt. Az.
08 May 11.2 00:32:19 10° NNW 00:33:07 10° NNW 00:33:55 10° N visible
08 May 11.1 02:20:50 10° N 02:22:34 11° NNE 02:24:16 10° NNE visible
08 May 9.8 04:05:52 10° NNW 04:11:01 30° NE 04:16:04 10° ESE visible
08 May 8.3 21:00:31 10° SW 21:06:41 73° NW 21:12:44 10° NNE visible
08 May 10.6 22:49:45 10° W 22:54:06 20° NNW 22:58:24 10° NNE visible
09 May 11.0 02:29:44 10° N 02:32:27 13° NNE 02:35:09 10° NE visible
09 May 9.3 04:15:02 10° NNW 04:20:34 40° NE 04:26:00 10° ESE visible
09 May 8.9 21:10:04 10° SW 21:16:06 53° NW 21:21:59 10° NNE visible
09 May 10.9 23:00:15 10° WNW 23:03:52 16° NNW 23:07:27 10° N visible
10 May 10.7 02:38:44 10° N 02:42:18 16° NNE 02:45:48 10° ENE visible
10 May 8.6 04:24:15 10° NNW 04:30:01 55° NE 04:35:43 10° SE visible
10 May 9.6 21:19:51 10° WSW 21:25:34 39° NW 21:31:11 10° NNE visible
10 May 11.0 23:10:57 10° NW 23:13:43 13° NNW 23:16:27 10° N visible
11 May 10.4 02:47:48 10° NNW 02:52:03 20° NNE 02:56:15 10° E visible
11 May 8.0 04:33:30 10° NNW 04:39:24 77° NE 04:45:12 10° SE visible
11 May 10.1 21:29:50 10° WSW 21:35:07 29° NW 21:40:20 10° NNE visible
11 May 11.1 23:21:55 10° NNW 23:23:37 11° NNW 23:25:19 10° N visible
12 May 11.1 01:12:21 10° N 01:13:04 10° NNE 01:13:47 10° NNE visible
12 May 10.0 02:56:54 10° NNW 03:01:44 25° NE 03:06:30 10° E visible
12 May 7.7 04:42:50 10° NW 04:48:42 76° WSW 04:54:29 10° SSE visible
12 May 10.5 21:40:01 10° W 21:44:46 23° NW 21:49:27 10° NNE visible
13 May 10.8 01:20:55 10° N 01:22:59 12° NNE 01:25:03 10° NE visible
13 May 9.5 03:06:03 10° NNW 03:11:20 33° NE 03:16:32 10° ESE visible
13 May 7.9 04:52:16 10° NW 04:57:56 52° WSW 05:03:31 10° S visible
13 May 10.7 21:50:24 10° WNW 21:54:29 18° NNW 21:58:31 10° NNE visible
14 May 10.6 01:29:51 10° N 01:32:52 14° NNE 01:35:52 10° NE visible
14 May 8.9 03:15:13 10° NNW 03:20:50 44° NE 03:26:23 10° ESE visible
14 May 8.3 05:01:49 10° NW 05:07:04 35° WSW 05:12:16 10° S visible
14 May 10.7 22:00:59 10° WNW 22:04:17 15° NNW 22:07:33 10° N visible
15 May 10.5 01:38:53 10° N 01:42:41 17° NNE 01:46:27 10° ENE visible
15 May 8.3 03:24:27 10° NNW 03:30:16 62° NE 03:36:01 10° SE visible
15 May 8.8 05:11:35 10° NW 05:16:08 24° WSW 05:20:40 10° SSW visible
15 May 10.8 22:11:46 10° NW 22:14:08 12° NNW 22:16:30 10° N visible
16 May 10.1 01:47:57 10° NNW 01:52:25 22° NE 01:56:49 10° E visible
16 May 7.8 03:33:44 10° NNW 03:39:37 87° ENE 03:45:26 10° SSE visible
16 May 11.0 22:22:54 10° NNW 22:24:04 11° NNW 22:25:14 10° N visible
17 May 10.8 00:12:14 10° N 00:13:30 11° NNE 00:14:47 10° NNE visible
17 May 9.7 01:57:05 10° NNW 02:02:04 28° NE 02:07:00 10° E visible
17 May 7.7 03:43:06 10° NW 03:48:54 67° WSW 03:54:38 10° SSE visible
